Regional Weather Roundup
Issued by NWS

Home | Current Version | Previous Version | Graphics & Text | Print | Product List | Glossary On
Versions: 1 2 3 4 5 6 7 8 9 10 11 12 13 14 15 16 17 18 19 20 21 22 23 24 25 26 27 28 29 30 31 32 33 34 35 36 37 38 39 40 41 42 43 44 45 46 47 48 49 50
000
ASUS43 KFSD 221402
RWRSD

WEATHER ROUNDUP FOR SOUTH DAKOTA
NATIONAL WEATHER SERVICE SIOUX FALLS SD
900 AM CDT TUE MAY 22 2018

NOTE: "FAIR" INDICATES FEW OR NO CLOUDS BELOW 12,000 FEET WITH NO
SIGNIFICANT WEATHER AND/OR OBSTRUCTIONS TO VISIBILITY.


SDZ001>005-009-010-012>017-221500-
NORTHWEST AND NORTH CENTRAL SOUTH DAKOTA

CITY           SKY/WX    TMP DP  RH WIND       PRES   REMARKS
MOBRIDGE       SUNNY     64  57  78 SE10      29.94R
$$

SDZ012>016-024>037-041>051-057-063-072>074-221500-
SOUTHWEST AND SOUTH CENTRAL SOUTH DAKOTA

CITY           SKY/WX    TMP DP  RH WIND       PRES   REMARKS
RAPID CTY ARPT SUNNY     65  51  60 CALM      29.96R
PIERRE         SUNNY     63  58  83 SE8       29.93S
CUSTER         SUNNY     64  42  44 N3        30.06S
ELLSWORTH AFB  SUNNY     66  55  66 CALM      29.95S
PHILIP         SUNNY     63  59  87 CALM      29.93S
PINE RIDGE     MOSUNNY   64  56  75 CALM      29.97R
SPEARFISH      FAIR      61  45  55 W5        30.01R
WINNER         FAIR      69  58  67 SE12      29.94F
$$

SDZ004>011-016>023-039-040-221500-
NORTHEAST SOUTH DAKOTA

CITY           SKY/WX    TMP DP  RH WIND       PRES   REMARKS
ABERDEEN       MOSUNNY   66  58  75 S9        29.99R
WATERTOWN      CLOUDY    58  58 100 SE6       30.01S
BROOKINGS      MOSUNNY   56  56 100 SE7       30.04S
SISSETON         N/A     58  57  97 SE7       30.00S
$$

SDZ017-020-022-023-036>040-048>070-221500-
SOUTHEAST SOUTH DAKOTA

CITY           SKY/WX    TMP DP  RH WIND       PRES   REMARKS
SIOUX FALLS    CLOUDY    63  58  83 E5        30.02S
HURON          MOSUNNY   63  57  81 MISG      29.98R
CHAMBERLAIN    SUNNY     66  64  91 SE8       29.95S
MITCHELL       SUNNY     66  59  78 SE12G20   29.98S
YANKTON        CLOUDY    64  61  90 E7        29.98F
$$

ABBREVIATIONS USED IN REMARKS
   TC - TEMPERATURE IN CELSIUS
  WCI - WIND CHILL INDEX
   HX - HEAT INDEX
  VSB - VISIBILITY





USA.gov is the U.S. government's official web portal to all federal, state and local government web resources and services.